,,PA_Meas_PMT16A,,PR_Meas_QMR101_102,,RH_Meas_QMH101,,SR_Meas_QMS101,,TA_Meas_QMH101,,GenWind,,GenWind,
time,status,PA,status,PR,status,RH,status,SR,status,TA,status,DirAvg,status,SpdAvg,
2010-08-12, 00:00:04,VALID,918.378,VALID,0,VALID,95.4071,VALID,0,VALID,20.6163,VALID,360,VALID,0.0242187,
2010-08-12, 00:01:04,VALID,918.346,VALID,0,VALID,95.3689,VALID,0.107441,VALID,20.6163,VALID,360,VALID,0.0191406,
2010-08-12, 00:02:04,VALID,918.33,VALID,0,VALID,95.3232,VALID,0.107441,VALID,20.6358,VALID,360,VALID,0.00195313,
2010-08-12, 00:03:04,VALID,918.307,VALID,0,VALID,95.1631,VALID,0.107441,VALID,20.6358,VALID,360,VALID,0.435156,
2010-08-12, 00:04:04,VALID,918.305,VALID,0,VALID,95.1707,VALID,0.107441,VALID,20.6569,VALID,360,VALID,0.630469,
2010-08-12, 00:05:04,VALID,918.284,VALID,0,VALID,95.2012,VALID,0,VALID,20.6569,VALID,360,VALID,0.891797,
2010-08-12, 00:06:04,VALID,918.26,VALID,0,VALID,95.3384,VALID,0,VALID,20.6764,VALID,360,VALID,1.1582,
2010-08-12, 00:07:04,VALID,918.273,VALID,0,VALID,95.3308,VALID,0.107441,VALID,20.6553,VALID,360,VALID,0.778125,
2010-08-12, 00:08:04,VALID,918.272,VALID,0,VALID,95.3842,VALID,0,VALID,20.6358,VALID,360,VALID,0.762109,
2010-08-12, 00:09:04,VALID,918.273,VALID,0,VALID,95.4985,VALID,0.107441,VALID,20.6358,VALID,360,VALID,0.809375,
2010-08-12, 00:10:04,VALID,918.297,VALID,0,VALID,95.5824,VALID,0,VALID,20.6374,VALID,360,VALID,0.709375,
2010-08-12, 00:11:04,VALID,918.336,VALID,0,VALID,95.712,VALID,0,VALID,20.6358,VALID,360,VALID,0.738281,
2010-08-12, 00:12:04,VALID,918.348,VALID,0,VALID,95.8416,VALID,0,VALID,20.6764,VALID,360,VALID,0.984375,
2010-08-12, 00:13:04,VALID,918.408,VALID,0,VALID,95.8873,VALID,0,VALID,20.6764,VALID,360,VALID,0.436719,
2010-08-12, 00:14:04,VALID,918.44,VALID,0,VALID,95.8568,VALID,0,VALID,20.7154,VALID,360,VALID,0.714844,
2010-08-12, 00:15:04,VALID,918.471,VALID,0,VALID,95.9559,VALID,0,VALID,20.7349,VALID,360,VALID,0.490234,
2010-08-12, 00:16:04,VALID,918.487,VALID,0,VALID,95.9331,VALID,0,VALID,20.7349,VALID,360,VALID,0.722266,
2010-08-12, 00:17:04,VALID,918.511,VALID,0,VALID,95.9483,VALID,0,VALID,20.7544,VALID,360,VALID,0.476563,
2010-08-12, 00:18:04,VALID,918.519,VALID,0,VALID,95.9331,VALID,0,VALID,20.7739,VALID,360,VALID,0.217969,
2010-08-12, 00:19:04,VALID,918.503,VALID,0,VALID,95.8187,VALID,0,VALID,20.7528,VALID,360,VALID,0.139453,
2010-08-12, 00:20:04,VALID,918.523,VALID,0,VALID,95.7882,VALID,0,VALID,20.7739,VALID,360,VALID,0.903125,
2010-08-12, 00:21:04,VALID,918.496,VALID,0,VALID,95.773,VALID,0.107441,VALID,20.7528,VALID,360,VALID,1.05039,
2010-08-12, 00:22:04,VALID,918.519,VALID,0,VALID,95.7577,VALID,0,VALID,20.7739,VALID,360,VALID,0.782812,
2010-08-12, 00:23:04,VALID,918.505,VALID,0,VALID,95.7577,VALID,0,VALID,20.7528,VALID,360,VALID,0.765234,
2010-08-12, 00:24:04,VALID,918.506,VALID,0,VALID,95.6891,VALID,0.107441,VALID,20.7739,VALID,360,VALID,0.709766,
2010-08-12, 00:25:04,VALID,918.52,VALID,0,VALID,95.6586,VALID,0,VALID,20.7755,VALID,360,VALID,0.533594,
2010-08-12, 00:26:04,VALID,918.563,VALID,0,VALID,95.5519,VALID,0,VALID,20.7365,VALID,360,VALID,0.483984,
2010-08-12, 00:27:04,VALID,918.532,VALID,0,VALID,95.4985,VALID,0,VALID,20.717,VALID,360,VALID,0.575391,
2010-08-12, 00:28:04,VALID,918.531,VALID,0,VALID,95.5367,VALID,0,VALID,20.717,VALID,360,VALID,0.577734,
2010-08-12, 00:29:04,VALID,918.509,VALID,0,VALID,95.4909,VALID,0,VALID,20.6975,VALID,360,VALID,0.65625,
2010-08-12, 00:30:04,VALID,918.461,VALID,0,VALID,95.4452,VALID,0,VALID,20.6585,VALID,360,VALID,0.507031,
2010-08-12, 00:31:04,VALID,918.404,VALID,0,VALID,95.4985,VALID,0,VALID,20.6374,VALID,360,VALID,0.490234,
2010-08-12, 00:32:04,VALID,918.382,VALID,0,VALID,95.59,VALID,0,VALID,20.639,VALID,360,VALID,0.978906,
2010-08-12, 00:33:04,VALID,918.339,VALID,0,VALID,95.6434,VALID,0,VALID,20.639,VALID,360,VALID,0.649219,
2010-08-12, 00:34:04,VALID,918.341,VALID,0,VALID,95.6662,VALID,0,VALID,20.5984,VALID,360,VALID,0.757031,
2010-08-12, 00:35:04,VALID,918.28,VALID,0,VALID,95.6967,VALID,0,VALID,20.5984,VALID,360,VALID,0.503906,
2010-08-12, 00:36:04,VALID,918.251,VALID,0,VALID,95.7882,VALID,0,VALID,20.5984,VALID,360,VALID,0.528906,
2010-08-12, 00:37:04,VALID,918.221,VALID,0,VALID,95.7882,VALID,0,VALID,20.5999,VALID,360,VALID,0.501562,
2010-08-12, 00:38:04,VALID,918.205,VALID,0,VALID,95.8187,VALID,0,VALID,20.5999,VALID,360,VALID,0.346875,
2010-08-12, 00:39:04,VALID,918.206,VALID,0,VALID,95.8721,VALID,0,VALID,20.6179,VALID,360,VALID,0.469141,
2010-08-12, 00:40:04,VALID,918.15,VALID,0,VALID,95.895,VALID,0,VALID,20.6374,VALID,360,VALID,0.527734,
2010-08-12, 00:41:04,VALID,918.159,VALID,0,VALID,95.6815,VALID,0,VALID,20.6194,VALID,360,VALID,0.483984,
2010-08-12, 00:42:04,VALID,918.148,VALID,0,VALID,95.5976,VALID,0,VALID,20.5804,VALID,360,VALID,0.595312,
2010-08-12, 00:43:04,VALID,918.142,VALID,0,VALID,95.5748,VALID,0,VALID,20.5609,VALID,360,VALID,0.781641,
2010-08-12, 00:44:04,VALID,918.138,VALID,0,VALID,95.5138,VALID,0,VALID,20.5414,VALID,360,VALID,0.629687,
2010-08-12, 00:45:04,VALID,918.126,VALID,0,VALID,95.5062,VALID,0,VALID,20.5204,VALID,360,VALID,0.435937,
2010-08-12, 00:46:04,VALID,918.122,VALID,0,VALID,95.6053,VALID,0,VALID,20.5609,VALID,360,VALID,0.783203,
2010-08-12, 00:47:04,VALID,918.133,VALID,0,VALID,95.5367,VALID,0,VALID,20.5219,VALID,360,VALID,0.659375,
2010-08-12, 00:48:04,VALID,918.14,VALID,0,VALID,95.5214,VALID,0,VALID,20.5414,VALID,360,VALID,0.801562,
2010-08-12, 00:49:04,VALID,918.12,VALID,0,VALID,95.4528,VALID,0,VALID,20.5219,VALID,360,VALID,0.368359,
2010-08-12, 00:50:04,VALID,918.112,VALID,0,VALID,95.5214,VALID,0,VALID,20.5399,VALID,360,VALID,0.218359,
2010-08-12, 00:51:04,VALID,918.134,VALID,0,VALID,95.4833,VALID,0,VALID,20.5399,VALID,360,VALID,0.154687,
2010-08-12, 00:52:04,VALID,918.098,VALID,0,VALID,95.3537,VALID,0,VALID,20.5024,VALID,360,VALID,0.298438,
2010-08-12, 00:53:04,VALID,918.066,VALID,0,VALID,95.3994,VALID,0,VALID,20.4813,VALID,360,VALID,0.519141,
2010-08-12, 00:54:04,VALID,918.079,VALID,0,VALID,95.4299,VALID,0,VALID,20.5009,VALID,360,VALID,0.347266,
2010-08-12, 00:55:04,VALID,918.061,VALID,0,VALID,95.3689,VALID,0.107441,VALID,20.5009,VALID,360,VALID,0.126953,
2010-08-12, 00:56:04,VALID,918.001,VALID,0,VALID,95.2165,VALID,0,VALID,20.4813,VALID,360,VALID,0.01875,
2010-08-12, 00:57:04,VALID,917.996,VALID,0,VALID,95.064,VALID,0,VALID,20.4408,VALID,360,VALID,0,
2010-08-12, 00:58:04,VALID,917.971,VALID,0,VALID,94.9801,VALID,0.107441,VALID,20.4423,VALID,360,VALID,0,
2010-08-12, 00:59:04,VALID,917.963,VALID,0,VALID,95.003,VALID,0,VALID,20.4618,VALID,360,VALID,0.00664063,
2010-08-12, 01:00:04,VALID,917.966,VALID,0,VALID,94.8277,VALID,0.107441,VALID,20.4033,VALID,360,VALID,0.456641,
2010-08-12, 01:01:04,VALID,917.957,VALID,0,VALID,94.7743,VALID,0,VALID,20.4033,VALID,360,VALID,0.813672,
2010-08-12, 01:02:04,VALID,917.942,VALID,0,VALID,94.5913,VALID,0,VALID,20.3448,VALID,360,VALID,0.591016,
2010-08-12, 01:03:04,VALID,917.966,VALID,0,VALID,94.9039,VALID,0,VALID,20.3643,VALID,360,VALID,0.414453,
2010-08-12, 01:04:04,VALID,917.959,VALID,0,VALID,94.9649,VALID,0,VALID,20.3043,VALID,360,VALID,0.318359,
2010-08-12, 01:05:04,VALID,917.993,VALID,0,VALID,94.9268,VALID,0.107441,VALID,20.3058,VALID,360,VALID,0.354688,
2010-08-12, 01:06:04,VALID,917.989,VALID,0,VALID,94.8505,VALID,0,VALID,20.2473,VALID,360,VALID,0.317187,
2010-08-12, 01:07:04,VALID,917.971,VALID,0,VALID,94.7896,VALID,0,VALID,20.2489,VALID,360,VALID,0.410156,
2010-08-12, 01:08:04,VALID,917.981,VALID,0,VALID,94.9115,VALID,0,VALID,20.2278,VALID,360,VALID,0.436328,
2010-08-12, 01:09:04,VALID,917.991,VALID,0,VALID,94.942,VALID,0,VALID,20.2083,VALID,360,VALID,0.66875,
2010-08-12, 01:10:04,VALID,917.972,VALID,0,VALID,95.0106,VALID,0,VALID,20.1873,VALID,360,VALID,0.592969,
2010-08-12, 01:11:04,VALID,918.012,VALID,0,VALID,95.1097,VALID,0.107441,VALID,20.1888,VALID,360,VALID,0.635547,
2010-08-12, 01:12:04,VALID,917.982,VALID,0,VALID,95.2546,VALID,0,VALID,20.1888,VALID,360,VALID,0.428516,
2010-08-12, 01:13:04,VALID,917.995,VALID,0,VALID,95.3918,VALID,0.107441,VALID,20.1888,VALID,360,VALID,0.480859,
2010-08-12, 01:14:04,VALID,917.994,VALID,0,VALID,95.3842,VALID,0,VALID,20.1498,VALID,360,VALID,1.19062,
2010-08-12, 01:15:04,VALID,918.007,VALID,0,VALID,95.4757,VALID,0,VALID,20.1303,VALID,360,VALID,0.763672,
2010-08-12, 01:16:04,VALID,918.002,VALID,0,VALID,95.5443,VALID,0.107441,VALID,20.1108,VALID,360,VALID,0.45625,
2010-08-12, 01:17:04,VALID,918.034,VALID,0,VALID,95.6586,VALID,0,VALID,20.0913,VALID,360,VALID,0.884375,
2010-08-12, 01:18:04,VALID,917.995,VALID,0,VALID,95.7196,VALID,0.107441,VALID,20.0718,VALID,17,VALID,0.583594,
2010-08-12, 01:19:04,VALID,917.972,VALID,0,VALID,95.8035,VALID,0.107441,VALID,20.0718,VALID,122,VALID,0.566406,
2010-08-12, 01:20:04,VALID,918.004,VALID,0,VALID,95.8721,VALID,0.107441,VALID,20.0523,VALID,122,VALID,0.441406,
2010-08-12, 01:21:04,VALID,917.965,VALID,0,VALID,95.9483,VALID,0.107441,VALID,20.0313,VALID,122,VALID,0.762109,
2010-08-12, 01:22:04,VALID,917.926,VALID,0,VALID,95.9407,VALID,0.107441,VALID,20.0133,VALID,122,VALID,0.361719,
2010-08-12, 01:23:04,VALID,917.912,VALID,0,VALID,96.0855,VALID,0,VALID,20.0523,VALID,122,VALID,0.472656,
2010-08-12, 01:24:04,VALID,917.89,VALID,0,VALID,96.1541,VALID,0.107441,VALID,20.0718,VALID,122,VALID,0.775391,
2010-08-12, 01:25:04,VALID,917.868,VALID,0,VALID,96.1846,VALID,0,VALID,20.0523,VALID,122,VALID,0.823828,
2010-08-12, 01:26:04,VALID,917.849,VALID,0,VALID,96.2685,VALID,0,VALID,20.0718,VALID,122,VALID,0.967578,
2010-08-12, 01:27:04,VALID,917.876,VALID,0,VALID,96.3295,VALID,0.107441,VALID,20.0718,VALID,122,VALID,0.616797,
2010-08-12, 01:28:04,VALID,917.88,VALID,0,VALID,96.36,VALID,0,VALID,20.0913,VALID,122,VALID,0.791016,
2010-08-12, 01:29:04,VALID,917.873,VALID,0,VALID,96.3829,VALID,0.107441,VALID,20.0913,VALID,122,VALID,0.496484,
2010-08-12, 01:30:04,VALID,917.892,VALID,0,VALID,96.3981,VALID,0,VALID,20.1108,VALID,122,VALID,0.609375,
2010-08-12, 01:31:04,VALID,917.866,VALID,0,VALID,96.4057,VALID,0,VALID,20.0913,VALID,122,VALID,0.387891,
2010-08-12, 01:32:04,VALID,917.896,VALID,0,VALID,96.4438,VALID,0,VALID,20.1108,VALID,122,VALID,0.451172,
2010-08-12, 01:33:04,VALID,917.849,VALID,0,VALID,96.4438,VALID,0,VALID,20.1093,VALID,122,VALID,0.544531,
2010-08-12, 01:34:04,VALID,917.863,VALID,0,VALID,96.4972,VALID,0.107441,VALID,20.1483,VALID,122,VALID,0.792969,
2010-08-12, 01:35:04,VALID,917.858,VALID,0,VALID,96.4819,VALID,0.107441,VALID,20.1888,VALID,122,VALID,0.542969,
2010-08-12, 01:36:04,VALID,917.811,VALID,0,VALID,96.5201,VALID,0.107441,VALID,20.2278,VALID,122,VALID,0.78125,
2010-08-12, 01:37:04,VALID,917.817,VALID,0,VALID,96.5277,VALID,0,VALID,20.2668,VALID,122,VALID,0.492578,
2010-08-12, 01:38:04,VALID,917.774,VALID,0,VALID,96.5201,VALID,0.107441,VALID,20.2668,VALID,122,VALID,0.408984,
2010-08-12, 01:39:04,VALID,917.77,VALID,0,VALID,96.5277,VALID,0.107441,VALID,20.2848,VALID,122,VALID,0.355469,
2010-08-12, 01:40:04,VALID,917.702,VALID,0,VALID,96.5201,VALID,0.107441,VALID,20.3043,VALID,122,VALID,0.498437,
2010-08-12, 01:41:04,VALID,917.682,VALID,0,VALID,96.4667,VALID,0,VALID,20.3253,VALID,122,VALID,0,
2010-08-12, 01:42:04,VALID,917.646,VALID,0,VALID,96.3752,VALID,0.107441,VALID,20.2863,VALID,122,VALID,0.025,
2010-08-12, 01:43:04,VALID,917.634,VALID,0,VALID,96.4057,VALID,0.107441,VALID,20.3058,VALID,122,VALID,0.359766,
2010-08-12, 01:44:04,VALID,917.617,VALID,0,VALID,96.4057,VALID,0.107441,VALID,20.3058,VALID,122,VALID,0.560547,
2010-08-12, 01:45:04,VALID,917.6,VALID,0,VALID,96.36,VALID,0.107441,VALID,20.2863,VALID,122,VALID,0.590234,
2010-08-12, 01:46:04,VALID,917.601,VALID,0,VALID,96.3905,VALID,0.107441,VALID,20.3058,VALID,122,VALID,0.484766,
2010-08-12, 01:47:04,VALID,917.594,VALID,0,VALID,96.3524,VALID,0.107441,VALID,20.2863,VALID,122,VALID,0.523047,
2010-08-12, 01:48:04,VALID,917.58,VALID,0,VALID,96.3066,VALID,0.107441,VALID,20.2473,VALID,122,VALID,0.527344,
2010-08-12, 01:49:04,VALID,917.579,VALID,0,VALID,96.2456,VALID,0,VALID,20.2263,VALID,122,VALID,0.599609,
2010-08-12, 01:50:04,VALID,917.569,VALID,0,VALID,96.2761,VALID,0,VALID,20.2278,VALID,122,VALID,0.372656,
2010-08-12, 01:51:04,VALID,917.552,VALID,0,VALID,96.2304,VALID,0.107441,VALID,20.2083,VALID,122,VALID,0.5625,
2010-08-12, 01:52:04,VALID,917.582,VALID,0,VALID,96.1694,VALID,0.107441,VALID,20.1888,VALID,122,VALID,0.488281,
2010-08-12, 01:53:04,VALID,917.557,VALID,0,VALID,96.1389,VALID,0.107441,VALID,20.1483,VALID,122,VALID,0.886328,
2010-08-12, 01:54:04,VALID,917.566,VALID,0,VALID,96.0779,VALID,0.107441,VALID,20.1498,VALID,122,VALID,0.6375,
2010-08-12, 01:55:04,VALID,917.555,VALID,0,VALID,96.1313,VALID,0,VALID,20.1903,VALID,122,VALID,0.297656,
2010-08-12, 01:56:04,VALID,917.562,VALID,0,VALID,96.1694,VALID,0,VALID,20.2098,VALID,122,VALID,0.934375,
2010-08-12, 01:57:04,VALID,917.597,VALID,0,VALID,96.1923,VALID,0,VALID,20.2098,VALID,122,VALID,0.784766,
2010-08-12, 01:58:04,VALID,917.56,VALID,0,VALID,96.1694,VALID,0,VALID,20.1888,VALID,122,VALID,0.194141,
2010-08-12, 01:59:04,VALID,917.538,VALID,0,VALID,96.1999,VALID,0,VALID,20.1903,VALID,122,VALID,0.0742188,
2010-08-12, 02:00:04,VALID,917.497,VALID,0,VALID,96.1236,VALID,0,VALID,20.1318,VALID,122,VALID,0.346875,
2010-08-12, 02:01:04,VALID,917.478,VALID,0,VALID,96.1084,VALID,0,VALID,20.1123,VALID,122,VALID,0.723047,
2010-08-12, 02:02:04,VALID,917.488,VALID,0,VALID,96.1389,VALID,0,VALID,20.0928,VALID,122,VALID,0.719141,
2010-08-12, 02:03:04,VALID,917.464,VALID,0,VALID,96.0855,VALID,0,VALID,20.0343,VALID,122,VALID,0.595312,
2010-08-12, 02:04:04,VALID,917.43,VALID,0,VALID,96.1465,VALID,0,VALID,19.9953,VALID,122,VALID,0.751562,
2010-08-12, 02:05:04,VALID,917.432,VALID,0,VALID,96.2075,VALID,0,VALID,19.9758,VALID,122,VALID,0.723437,
2010-08-12, 02:06:04,VALID,917.426,VALID,0,VALID,96.238,VALID,0,VALID,19.9563,VALID,122,VALID,0.38125,
2010-08-12, 02:07:04,VALID,917.43,VALID,0,VALID,96.3142,VALID,0,VALID,19.9173,VALID,122,VALID,0.38125,
2010-08-12, 02:08:04,VALID,917.436,VALID,0,VALID,96.3524,VALID,0,VALID,19.9173,VALID,122,VALID,0.0398437,
2010-08-12, 02:09:04,VALID,917.468,VALID,0,VALID,96.3447,VALID,0,VALID,19.9173,VALID,122,VALID,0,
2010-08-12, 02:10:04,VALID,917.446,VALID,0,VALID,96.4057,VALID,0,VALID,19.8963,VALID,122,VALID,0.13125,
2010-08-12, 02:11:04,VALID,917.427,VALID,0,VALID,96.4057,VALID,0,VALID,19.8768,VALID,122,VALID,0,
2010-08-12, 02:12:04,VALID,917.418,VALID,0,VALID,96.3219,VALID,0,VALID,19.8378,VALID,122,VALID,0,
2010-08-12, 02:13:04,VALID,917.398,VALID,0,VALID,96.3066,VALID,0,VALID,19.7793,VALID,122,VALID,0.441406,
2010-08-12, 02:14:04,VALID,917.408,VALID,0,VALID,96.299,VALID,0,VALID,19.7208,VALID,122,VALID,0.194922,
2010-08-12, 02:15:04,VALID,917.427,VALID,0,VALID,96.177,VALID,0,VALID,19.6623,VALID,122,VALID,0,
2010-08-12, 02:16:04,VALID,917.37,VALID,0,VALID,96.2228,VALID,0,VALID,19.6038,VALID,122,VALID,0,
2010-08-12, 02:17:04,VALID,917.39,VALID,0,VALID,96.3142,VALID,0,VALID,19.6038,VALID,122,VALID,0,
2010-08-12, 02:18:04,VALID,917.339,VALID,0,VALID,96.36,VALID,0,VALID,19.6038,VALID,122,VALID,0.328516,
2010-08-12, 02:19:04,VALID,917.3,VALID,0,VALID,96.5506,VALID,0.107441,VALID,19.7193,VALID,122,VALID,0.618359,
2010-08-12, 02:20:04,VALID,917.299,VALID,0,VALID,96.5887,VALID,0,VALID,19.7598,VALID,122,VALID,0.911719,
2010-08-12, 02:21:04,VALID,917.273,VALID,0,VALID,96.6192,VALID,0.107441,VALID,19.7598,VALID,122,VALID,1.10117,
2010-08-12, 02:22:04,VALID,917.312,VALID,0,VALID,96.6039,VALID,0,VALID,19.7583,VALID,122,VALID,0.85625,
2010-08-12, 02:23:04,VALID,917.297,VALID,0,VALID,96.4819,VALID,0,VALID,19.7013,VALID,122,VALID,0.8375,
2010-08-12, 02:24:04,VALID,917.294,VALID,0,VALID,96.5201,VALID,0,VALID,19.6818,VALID,122,VALID,0.780469,
2010-08-12, 02:25:04,VALID,917.317,VALID,0,VALID,96.6573,VALID,0,VALID,19.7223,VALID,122,VALID,0.723437,
2010-08-12, 02:26:04,VALID,917.267,VALID,0,VALID,96.6649,VALID,0,VALID,19.7223,VALID,122,VALID,0.851563,
2010-08-12, 02:27:04,VALID,917.279,VALID,0,VALID,96.6954,VALID,0,VALID,19.7418,VALID,122,VALID,1.20508,
2010-08-12, 02:28:04,VALID,917.249,VALID,0,VALID,96.6878,VALID,0,VALID,19.7028,VALID,122,VALID,1.06758,
2010-08-12, 02:29:04,VALID,917.27,VALID,0,VALID,96.703,VALID,0,VALID,19.6833,VALID,122,VALID,0.879297,
2010-08-12, 02:30:04,VALID,917.222,VALID,0,VALID,96.7107,VALID,0,VALID,19.6833,VALID,122,VALID,0.732031,
2010-08-12, 02:31:04,VALID,917.19,VALID,0,VALID,96.764,VALID,0,VALID,19.7028,VALID,122,VALID,0.914453,
2010-08-12, 02:32:04,VALID,917.199,VALID,0,VALID,96.7564,VALID,0,VALID,19.7028,VALID,122,VALID,0.944141,
2010-08-12, 02:33:04,VALID,917.166,VALID,0,VALID,96.7869,VALID,0,VALID,19.7223,VALID,122,VALID,0.739453,
2010-08-12, 02:34:04,VALID,917.163,VALID,0,VALID,96.8021,VALID,0,VALID,19.7223,VALID,122,VALID,0.717188,
2010-08-12, 02:35:04,VALID,917.14,VALID,0,VALID,96.8326,VALID,0,VALID,19.7418,VALID,122,VALID,0.435156,
2010-08-12, 02:36:04,VALID,917.13,VALID,0,VALID,96.8555,VALID,0,VALID,19.7418,VALID,122,VALID,0.7125,
2010-08-12, 02:37:04,VALID,917.117,VALID,0,VALID,96.8631,VALID,0,VALID,19.7418,VALID,122,VALID,0.967188,
2010-08-12, 02:38:04,VALID,917.106,VALID,0,VALID,96.8707,VALID,0,VALID,19.7418,VALID,122,VALID,0.437891,
2010-08-12, 02:39:04,VALID,917.057,VALID,0,VALID,96.8707,VALID,0,VALID,19.7418,VALID,122,VALID,0.592969,
2010-08-12, 02:40:04,VALID,917.05,VALID,0,VALID,96.9241,VALID,0,VALID,19.7793,VALID,122,VALID,0.158203,
2010-08-12, 02:41:04,VALID,917.068,VALID,0,VALID,96.9698,VALID,0,VALID,19.8183,VALID,122,VALID,0.989844,
2010-08-12, 02:42:04,VALID,917.023,VALID,0,VALID,96.9927,VALID,0,VALID,19.8378,VALID,122,VALID,0.985937,
2010-08-12, 02:43:04,VALID,917.043,VALID,0,VALID,97.008,VALID,0.107441,VALID,19.8558,VALID,169,VALID,0.712891,
2010-08-12, 02:44:04,VALID,916.998,VALID,0,VALID,97.008,VALID,0,VALID,19.8768,VALID,169,VALID,1.07383,
2010-08-12, 02:45:04,VALID,916.987,VALID,0,VALID,97.008,VALID,0,VALID,19.8963,VALID,187,VALID,1.37734,
2010-08-12, 02:46:04,VALID,916.973,VALID,0,VALID,97.0003,VALID,0,VALID,19.9158,VALID,173,VALID,1.18633,
2010-08-12, 02:47:04,VALID,916.948,VALID,0,VALID,96.9622,VALID,0,VALID,19.8963,VALID,178,VALID,1.37305,
2010-08-12, 02:48:04,VALID,916.912,VALID,0,VALID,96.9851,VALID,0,VALID,19.8963,VALID,179,VALID,0.655469,
2010-08-12, 02:49:04,VALID,916.903,VALID,0,VALID,96.9927,VALID,0,VALID,19.8963,VALID,179,VALID,1.05,
2010-08-12, 02:50:04,VALID,916.842,VALID,0,VALID,97.0232,VALID,0.107441,VALID,19.9158,VALID,162,VALID,1.50391,
2010-08-12, 02:51:04,VALID,916.886,VALID,0,VALID,97.008,VALID,0,VALID,19.8963,VALID,140,VALID,0.75625,
2010-08-12, 02:52:04,VALID,916.802,VALID,0,VALID,97.0003,VALID,0.107441,VALID,19.8978,VALID,147,VALID,0.51875,
2010-08-12, 02:53:04,VALID,916.813,VALID,0,VALID,97.0156,VALID,0,VALID,19.8573,VALID,147,VALID,1.00937,
2010-08-12, 02:54:04,VALID,916.825,VALID,0,VALID,96.9927,VALID,0.107441,VALID,19.8573,VALID,148,VALID,0.832812,
2010-08-12, 02:55:04,VALID,916.809,VALID,0,VALID,97.0232,VALID,0,VALID,19.8393,VALID,176,VALID,0.491406,
2010-08-12, 02:56:04,VALID,916.818,VALID,0,VALID,97.008,VALID,0,VALID,19.8198,VALID,131,VALID,0.794531,
2010-08-12, 02:57:04,VALID,916.815,VALID,0,VALID,97.0308,VALID,0,VALID,19.8198,VALID,126,VALID,1.10195,
2010-08-12, 02:58:04,VALID,916.827,VALID,0,VALID,96.9927,VALID,0,VALID,19.8003,VALID,133,VALID,0.80625,
2010-08-12, 02:59:04,VALID,916.804,VALID,0,VALID,97.0308,VALID,0,VALID,19.8003,VALID,133,VALID,1.29141,
2010-08-12, 03:00:04,VALID,916.824,VALID,0,VALID,96.9698,VALID,0,VALID,19.7808,VALID,157,VALID,1.50547,
2010-08-12, 03:01:04,VALID,916.819,VALID,0,VALID,96.9317,VALID,0,VALID,19.7613,VALID,127,VALID,1.44453,
2010-08-12, 03:02:04,VALID,916.821,VALID,0,VALID,96.9317,VALID,0,VALID,19.7613,VALID,140,VALID,1.23164,
2010-08-12, 03:03:04,VALID,916.771,VALID,0,VALID,96.9241,VALID,0,VALID,19.7808,VALID,138,VALID,0.989844,
2010-08-12, 03:04:04,VALID,916.751,VALID,0,VALID,96.9165,VALID,0,VALID,19.8003,VALID,140,VALID,1.38633,
2010-08-12, 03:05:04,VALID,916.762,VALID,0,VALID,96.8707,VALID,0,VALID,19.7808,VALID,135,VALID,0.630859,
2010-08-12, 03:06:04,VALID,916.699,VALID,0,VALID,96.8707,VALID,0,VALID,19.8003,VALID,188,VALID,1.48789,
2010-08-12, 03:07:04,VALID,916.686,VALID,0,VALID,96.8555,VALID,0,VALID,19.8393,VALID,197,VALID,0.799609,
2010-08-12, 03:08:04,VALID,916.689,VALID,0,VALID,96.8174,VALID,0,VALID,19.8588,VALID,177,VALID,0.866016,
2010-08-12, 03:09:04,VALID,916.664,VALID,0,VALID,96.764,VALID,0,VALID,19.8393,VALID,165,VALID,1.04531,
2010-08-12, 03:10:04,VALID,916.648,VALID,0,VALID,96.7488,VALID,0,VALID,19.8573,VALID,165,VALID,0.144141,
2010-08-12, 03:11:04,VALID,916.66,VALID,0,VALID,96.7107,VALID,0.107441,VALID,19.8573,VALID,165,VALID,0.846484,
2010-08-12, 03:12:04,VALID,916.637,VALID,0,VALID,96.6573,VALID,0,VALID,19.8573,VALID,166,VALID,1.89883,
2010-08-12, 03:13:04,VALID,916.653,VALID,0,VALID,96.6192,VALID,0,VALID,19.8978,VALID,176,VALID,0.6,
2010-08-12, 03:14:04,VALID,916.64,VALID,0,VALID,96.5429,VALID,0,VALID,19.8573,VALID,176,VALID,1.2168,
2010-08-12, 03:15:04,VALID,916.651,VALID,0,VALID,96.4819,VALID,0,VALID,19.8588,VALID,122,VALID,0.849609,
2010-08-12, 03:16:04,VALID,916.634,VALID,0,VALID,96.4362,VALID,0,VALID,19.8378,VALID,159,VALID,0.416016,
2010-08-12, 03:17:04,VALID,916.651,VALID,0,VALID,96.3447,VALID,0,VALID,19.8183,VALID,159,VALID,0.552344,
2010-08-12, 03:18:04,VALID,916.624,VALID,0,VALID,96.299,VALID,0,VALID,19.8183,VALID,159,VALID,0.630469,
2010-08-12, 03:19:04,VALID,916.654,VALID,0,VALID,96.2228,VALID,0,VALID,19.8183,VALID,159,VALID,0.8,
2010-08-12, 03:20:04,VALID,916.638,VALID,0,VALID,96.1923,VALID,0,VALID,19.8198,VALID,159,VALID,0.469531,
2010-08-12, 03:21:04,VALID,916.593,VALID,0,VALID,96.1694,VALID,0,VALID,19.7988,VALID,159,VALID,0.846484,
2010-08-12, 03:22:04,VALID,916.59,VALID,0,VALID,96.1389,VALID,0,VALID,19.7793,VALID,124,VALID,0.570703,
2010-08-12, 03:23:04,VALID,916.564,VALID,0,VALID,96.116,VALID,0.107441,VALID,19.7793,VALID,124,VALID,0.787109,
2010-08-12, 03:24:04,VALID,916.582,VALID,0,VALID,96.055,VALID,0.107441,VALID,19.7598,VALID,124,VALID,0.546094,
2010-08-12, 03:25:04,VALID,916.554,VALID,0,VALID,95.9636,VALID,0.107441,VALID,19.7403,VALID,124,VALID,0.60625,
2010-08-12, 03:26:04,VALID,916.54,VALID,0,VALID,95.8645,VALID,0,VALID,19.7208,VALID,124,VALID,0.459375,
2010-08-12, 03:27:04,VALID,916.514,VALID,0,VALID,95.8263,VALID,0,VALID,19.7028,VALID,124,VALID,0.273047,
2010-08-12, 03:28:04,VALID,916.482,VALID,0,VALID,95.7272,VALID,0.107441,VALID,19.6428,VALID,124,VALID,0,
2010-08-12, 03:29:04,VALID,916.465,VALID,0,VALID,95.651,VALID,0.107441,VALID,19.6038,VALID,124,VALID,0.0125,
2010-08-12, 03:30:04,VALID,916.471,VALID,0,VALID,95.6967,VALID,0,VALID,19.6038,VALID,124,VALID,0.475391,
2010-08-12, 03:31:04,VALID,916.427,VALID,0,VALID,95.773,VALID,0,VALID,19.6038,VALID,124,VALID,0.558594,
2010-08-12, 03:32:04,VALID,916.426,VALID,0,VALID,95.8492,VALID,0,VALID,19.6248,VALID,124,VALID,0.610156,
2010-08-12, 03:33:04,VALID,916.414,VALID,0,VALID,95.8035,VALID,0,VALID,19.5648,VALID,124,VALID,0.35625,
2010-08-12, 03:34:04,VALID,916.374,VALID,0,VALID,95.8492,VALID,0,VALID,19.5843,VALID,124,VALID,0.608594,
2010-08-12, 03:35:04,VALID,916.396,VALID,0,VALID,95.8873,VALID,0,VALID,19.5648,VALID,124,VALID,0.654297,
2010-08-12, 03:36:04,VALID,916.355,VALID,0,VALID,95.895,VALID,0,VALID,19.5453,VALID,124,VALID,0.479688,
2010-08-12, 03:37:04,VALID,916.308,VALID,0,VALID,95.9102,VALID,0,VALID,19.5663,VALID,124,VALID,0.187109,
2010-08-12, 03:38:04,VALID,916.301,VALID,0,VALID,95.9331,VALID,0,VALID,19.5258,VALID,124,VALID,0.408984,
2010-08-12, 03:39:04,VALID,916.324,VALID,0,VALID,95.8797,VALID,0,VALID,19.4868,VALID,124,VALID,0.308594,
2010-08-12, 03:40:04,VALID,916.304,VALID,0,VALID,95.8645,VALID,0.107441,VALID,19.4883,VALID,124,VALID,0.609375,
2010-08-12, 03:41:04,VALID,916.336,VALID,0,VALID,95.8263,VALID,0,VALID,19.4478,VALID,124,VALID,0.498047,